星链-32820 (STARLINK-32820)

导读

STARLINK-32820是由美国(US)于2025年2月18日发射的星链卫星,隶属于SpaceX公司的星链项目。星链项目旨在构建全球卫星互联网星座,为全球各地尤其是偏远地区提供高速宽带互联网接入服务,该卫星的成功发射进一步扩充了星链星座的在轨卫星规模,推进了全球卫星互联网络的组网进程。

Basic Information
目录编号:
63041
目录名称:
STARLINK-32820
国际标识:
2025-034N
轨道中心:
EARTH
卫星名称:
星链-32820
卫星全名:
星链-32820 (STARLINK-32820)
卫星状态:
在轨 (已飞行481 天)
发射日期:
2025-02-18 UTC
国别 :
美国 (US)
星等 :
--
Orbit Information
数据来源 国际轨道数据 AOE轨道数据
星历时间 2026-06-14T02:02:48+0800
17小时前
查看轨道信息
2026-06-09T23:00:00+0800
4天前
查看轨道信息
半长轴 6853.216km 6853.371km
偏心率 0.000144 0.0001385
轨道倾角 53.160° 53.157°
近地点辐角 85.737° 84.223°
升交点赤经 171.976° 191.148°
平近点角 274.379° 209.026°
近地点 474.092km 474.284km
远地点 476.066km 476.184km
周期 94.103分钟 94.106分钟
每日圈数 15.302459 15.301937
Detailed Information
固有亮度:
5
最大亮度:
2.5
卫星平台:
Starlink V1.0
覆盖范围:
全球
运营商:
太空探索技术公司
运营商所在国:
美国
制造商(研发单位):
太空探索技术公司
制造商所在国:
美国
使用方式:
暂无
Satellite Introduction
Starlink 计划是 SpaceX 推出的全球卫星互联网项目,通过发射低轨道卫星,为全球尤其是偏远地区提供高速、低延迟的互联网服务。自 2019 年起,Starlink 已部署数千颗卫星,旨在缩小全球数字鸿沟,推动互联网普及。该项目还为军事、航空等行业提供通信支持,带来广泛经济效益。
2D Orbit Map
3D Orbit Map
Orbit Altitude Analysis Chart
Orbit Inclination Analysis Chart
Orbit Comprehensive Analysis Chart
View Comprehensive Chart